Flag for U.S.A. Weather past 2 weeks in Atlanta, Georgia, U.S.A.

Now
81 °F

Passing clouds.


Feels Like: 82 °F
Forecast: 63 / 80 °F
Wind: 6 mph from East

Location: Fulton County Airport-Brown Field

Current Time: Sep 19, 2014 at 8:07:15 PM

Latest Report: Sep 19, 2014 at 6:53 PM


Visibility: 10 mi

Pressure: 30.03 "Hg

Humidity: 53%

Dew point: 62 °F

Location of AtlantaLocation

Historic Weather in Atlanta — Graph

°F

Atlanta temperature yesterday

Maximum temperature yesterday: 82 °F (at 1:53 PM)
Minimum temperature yesterday: 59 °F (at 6:53 AM)
Average temperature yesterday: 71 °F

Past Weeks' High & Low Weather Summary

 TemperatureHumidityPressure
High90 °F (Sep 6, 2:53 PM)97% (Sep 12, 9:53 PM)30.22 "Hg (Sep 12, 9:53 PM)
Low59 °F (Sep 18, 6:53 AM)43% (Sep 17, 4:53 PM)29.87 "Hg (Sep 17, 5:53 PM)
Average76 °F78%30.04 "Hg
* Reported Sep 4 6:53 PM — Sep 19 6:53 PM, Atlanta, Weather by CustomWeather, © 2014

Note: Actual official high and low records may vary slightly from our data, if they occured in-between our weather recording intervals... More about our weather records

Advertising

Atlanta weather history for previous 24 hours

 ConditionsComfort  
Time TempWeatherWind HumidityBarometerVisibility
6:53 PM
Sep 19
81 °FPassing clouds.6 mph53%30.03 "Hg10 mi
5:53 PM82 °FSunny.5 mph51%30.03 "Hg10 mi
4:53 PM83 °FSunny.7 mph50%30.02 "Hg10 mi
3:53 PM83 °FPartly sunny.12 mph51%30.02 "Hg10 mi
2:53 PM82 °FPassing clouds.12 mph55%30.03 "Hg10 mi
1:53 PM80 °FScattered clouds.14 mph58%30.06 "Hg10 mi
12:53 PM80 °FCloudy.8 mph58%30.06 "Hg10 mi
11:53 AM80 °FScattered clouds.8 mph60%30.07 "Hg10 mi
10:53 AM78 °FSunny.9 mph66%30.07 "Hg10 mi
9:53 AM74 °FPassing clouds.7 mph76%30.06 "Hg10 mi
8:53 AM71 °FScattered clouds.6 mph84%30.05 "Hg10 mi
7:53 AM66 °FClear.No wind93%30.03 "Hg8 mi
6:53 AM67 °FClear.No wind90%30.01 "Hg10 mi
5:53 AM66 °FClear.No wind93%30.00 "Hg10 mi
4:53 AM67 °FClear.No wind93%29.99 "Hg10 mi
3:53 AM66 °FClear.No wind93%29.98 "Hg10 mi
2:53 AM68 °FClear.No wind87%30.00 "Hg10 mi
1:53 AM67 °FClear.No wind90%29.99 "Hg10 mi
12:53 AM68 °FClear.3 mph90%29.99 "Hg10 mi
11:53 PM
Sep 18
69 °FClear.No wind87%29.98 "Hg10 mi
10:53 PM73 °FPassing clouds.3 mph74%29.98 "Hg10 mi
9:53 PM69 °FClear.No wind87%29.97 "Hg10 mi
8:53 PM71 °FClear.No wind81%29.95 "Hg10 mi
Weather by CustomWeather, © 2014

See weather overviewHow to use our weather pages